| time (UTC) | temp C | wind direction | speed KPH | gust KPH | rain 1hr cm | rain 24hr cm | rain mn cm | humidity % | barometer mb |
| 20260504210254 | 15 | 270 | 0.0 | 1.6 | 0.00 | 0.20 | 0.20 | 95 | 1017.7 |
| 20260504205755 | 16 | 270 | 0.0 | 1.6 | 0.00 | 0.20 | 0.20 | 95 | 1017.7 |
| 20260504205257 | 16 | 270 | 0.0 | 0.0 | 0.00 | 0.20 | 0.20 | 95 | 1017.6 |
| 20260504204758 | 16 | 270 | 0.0 | 0.0 | 0.00 | 0.20 | 0.20 | 95 | 1017.5 |
| 20260504204259 | 16 | 270 | 0.0 | 0.0 | 0.00 | 0.20 | 0.20 | 95 | 1017.4 |
| 20260504203759 | 16 | 270 | 0.0 | 0.0 | 0.00 | 0.20 | 0.20 | 95 | 1017.5 |
| 20260504203300 | 16 | 270 | 0.0 | 0.0 | 0.00 | 0.20 | 0.20 | 95 | 1017.5 |
| 20260504202802 | 16 | 270 | 0.0 | 0.0 | 0.00 | 0.20 | 0.20 | 95 | 1017.4 |
| 20260504202304 | 16 | 270 | 0.0 | 1.6 | 0.00 | 0.20 | 0.20 | 95 | 1017.2 |
| 20260504201758 | 17 | 270 | 0.0 | 1.6 | 0.00 | 0.20 | 0.20 | 95 | 1017.1 |
| 20260504201258 | 17 | 270 | 0.0 | 1.6 | 0.00 | 0.20 | 0.20 | 94 | 1017.1 |
| 20260504200759 | 17 | 270 | 0.0 | 1.6 | 0.00 | 0.20 | 0.20 | 94 | 1017.0 |
| 20260504200300 | 17 | 270 | 1.6 | 3.2 | 0.00 | 0.20 | 0.20 | 94 | 1017.0 |
| 20260504195801 | 17 | 270 | 0.0 | 3.2 | 0.00 | 0.20 | 0.20 | 94 | 1016.8 |
| 20260504195304 | 17 | 270 | 0.0 | 3.2 | 0.00 | 0.20 | 0.20 | 94 | 1016.8 |
| 20260504194803 | 17 | 270 | 0.0 | 3.2 | 0.00 | 0.20 | 0.20 | 95 | 1016.9 |
| 20260504194304 | 17 | 270 | 0.0 | 1.6 | 0.00 | 0.20 | 0.20 | 95 | 1016.9 |
| 20260504193805 | 17 | 270 | 0.0 | 1.6 | 0.00 | 0.20 | 0.20 | 95 | 1016.8 |
| 20260504193305 | 17 | 270 | 0.0 | 1.6 | 0.00 | 0.20 | 0.20 | 95 | 1016.7 |
| 20260504192806 | 17 | 270 | 0.0 | 1.6 | 0.00 | 0.20 | 0.20 | 95 | 1016.6 |
| 20260504192308 | 17 | 270 | 0.0 | 1.6 | 0.00 | 0.20 | 0.20 | 95 | 1016.5 |
| 20260504191809 | 17 | 270 | 0.0 | 1.6 | 0.00 | 0.20 | 0.20 | 95 | 1016.4 |
| 20260504191310 | 17 | 270 | 0.0 | 1.6 | 0.00 | 0.20 | 0.20 | 95 | 1016.4 |
| 20260504190811 | 17 | 270 | 0.0 | 0.0 | 0.00 | 0.20 | 0.20 | 95 | 1016.3 |
| 20260504190311 | 17 | 270 | 0.0 | 0.0 | 0.00 | 0.20 | 0.20 | 95 | 1016.2 |
| 20260504185813 | 17 | 270 | 0.0 | 0.0 | 0.00 | 0.20 | 0.20 | 95 | 1016.1 |
| 20260504185314 | 17 | 270 | 0.0 | 0.0 | 0.00 | 0.20 | 0.20 | 95 | 1016.2 |
| 20260504184815 | 17 | 270 | 0.0 | 0.0 | 0.00 | 0.20 | 0.20 | 95 | 1016.2 |
| 20260504184315 | 17 | 270 | 0.0 | 0.0 | 0.00 | 0.20 | 0.20 | 95 | 1016.2 |
| 20260504183817 | 17 | 270 | 0.0 | 0.0 | 0.00 | 0.20 | 0.20 | 95 | 1016.2 |
| 20260504183318 | 17 | 270 | 0.0 | 0.0 | 0.00 | 0.20 | 0.20 | 95 | 1016.2 |
| 20260504182819 | 17 | 270 | 0.0 | 0.0 | 0.00 | 0.20 | 0.20 | 95 | 1016.3 |
| 20260504182320 | 17 | 270 | 0.0 | 0.0 | 0.00 | 0.20 | 0.20 | 95 | 1016.3 |
| 20260504181821 | 17 | 270 | 0.0 | 0.0 | 0.00 | 0.20 | 0.20 | 94 | 1016.2 |
| 20260504181321 | 17 | 270 | 0.0 | 1.6 | 0.00 | 0.20 | 0.20 | 95 | 1016.1 |
| 20260504180823 | 17 | 270 | 0.0 | 1.6 | 0.00 | 0.20 | 0.20 | 94 | 1016.1 |
| 20260504180324 | 17 | 270 | 0.0 | 0.0 | 0.00 | 0.20 | 0.20 | 94 | 1016.0 |
| 20260504175825 | 17 | 270 | 0.0 | 0.0 | 0.00 | 0.20 | 0.20 | 94 | 1016.1 |
| 20260504175326 | 17 | 315 | 0.0 | 1.6 | 0.00 | 0.20 | 0.20 | 95 | 1016.2 |
| 20260504174826 | 17 | 315 | 0.0 | 1.6 | 0.00 | 0.20 | 0.20 | 94 | 1016.1 |
| 20260504174328 | 17 | 315 | 0.0 | 1.6 | 0.03 | 0.20 | 0.20 | 95 | 1016.1 |
| 20260504173829 | 17 | 315 | 1.6 | 3.2 | 0.03 | 0.20 | 0.20 | 94 | 1015.8 |
| 20260504173330 | 17 | 315 | 1.6 | 3.2 | 0.03 | 0.20 | 0.20 | 94 | 1015.8 |
| 20260504172831 | 17 | 315 | 0.0 | 1.6 | 0.03 | 0.20 | 0.20 | 94 | 1015.7 |
| 20260504172332 | 17 | 315 | 0.0 | 0.0 | 0.03 | 0.20 | 0.20 | 94 | 1015.8 |
| 20260504171832 | 17 | 315 | 0.0 | 3.2 | 0.03 | 0.20 | 0.20 | 94 | 1015.9 |
| 20260504171333 | 17 | 315 | 0.0 | 1.6 | 0.03 | 0.20 | 0.20 | 94 | 1016.1 |
| 20260504170835 | 17 | 315 | 0.0 | 0.0 | 0.03 | 0.20 | 0.20 | 94 | 1016.2 |
| 20260504170336 | 17 | 315 | 0.0 | 1.6 | 0.03 | 0.20 | 0.20 | 94 | 1016.2 |
| 20260504160347 | 17 | 315 | 1.6 | 3.2 | 0.05 | 0.18 | 0.18 | 93 | 1016.3 |
| 20260504150856 | 17 | 315 | 1.6 | 3.2 | 0.00 | 0.13 | 0.13 | 92 | 1016.0 |
| 20260504150357 | 17 | 315 | 1.6 | 3.2 | 0.00 | 0.13 | 0.13 | 92 | 1016.1 |
| 20260504140907 | 17 | 315 | 0.0 | 0.0 | 0.00 | 0.13 | 0.13 | 92 | 1015.4 |
| 20260504140409 | 17 | 315 | 0.0 | 1.6 | 0.00 | 0.13 | 0.13 | 92 | 1015.4 |
| 20260504130421 | 17 | 293 | 0.0 | 1.6 | 0.00 | 0.13 | 0.13 | 92 | 1015.8 |
| 20260504110445 | 18 | 225 | 0.0 | 0.0 | 0.13 | 0.13 | 0.13 | 91 | 1016.6 |
| 20260504100453 | 20 | 315 | 0.0 | 3.2 | 0.00 | 0.00 | 0.00 | 76 | 1016.8 |
| 20260504081515 | 21 | 0 | 0.0 | 1.6 | 0.00 | 0.00 | 0.00 | 64 | 1015.7 |
| 20260504081016 | 21 | 0 | 0.0 | 0.0 | 0.00 | 0.00 | 0.00 | 63 | 1015.7 |
| 20260504080517 | 21 | 315 | 0.0 | 0.0 | 0.00 | 0.00 | 0.00 | 62 | 1015.7 |
| 20260504050553 | 25 | 158 | 0.0 | 1.6 | 0.00 | 0.00 | 0.00 | 50 | 1015.0 |
| 20260504045554 | 25 | 158 | 0.0 | 1.6 | 0.00 | 0.00 | 0.00 | 50 | 1014.9 |
| 20260504045056 | 25 | 225 | 0.0 | 0.0 | 0.00 | 0.00 | 0.00 | 50 | 1014.9 |
| 20260504044557 | 25 | 225 | 0.0 | 0.0 | 0.00 | 0.00 | 0.00 | 50 | 1014.9 |
| 20260504044058 | 25 | 225 | 0.0 | 1.6 | 0.00 | 0.00 | 0.00 | 50 | 1014.8 |
| 20260504043559 | 25 | 225 | 0.0 | 0.0 | 0.00 | 0.00 | 0.00 | 49 | 1014.9 |
| 20260504043059 | 25 | 203 | 0.0 | 1.6 | 0.00 | 0.00 | 0.00 | 49 | 1015.1 |
| 20260504042559 | 25 | 270 | 0.0 | 0.0 | 0.00 | 0.00 | 0.00 | 49 | 1015.1 |
| 20260504042101 | 25 | 248 | 0.0 | 1.6 | 0.00 | 0.00 | 0.00 | 48 | 1015.2 |
| 20260504041602 | 25 | 225 | 0.0 | 0.0 | 0.00 | 0.00 | 0.00 | 49 | 1015.1 |
| 20260504041102 | 25 | 225 | 0.0 | 3.2 | 0.00 | 0.00 | 0.00 | 50 | 1015.3 |
| 20260504040603 | 25 | 270 | 0.0 | 3.2 | 0.00 | 0.00 | 0.00 | 50 | 1015.2 |
| 20260504040103 | 25 | 225 | 0.0 | 1.6 | 0.00 | 0.00 | 0.00 | 51 | 1015.4 |
| 20260504035605 | 25 | 225 | 0.0 | 1.6 | 0.00 | 0.00 | 0.00 | 51 | 1015.4 |
| 20260504035106 | 25 | 225 | 0.0 | 0.0 | 0.00 | 0.00 | 0.00 | 51 | 1015.5 |
| 20260504034607 | 25 | 225 | 0.0 | 1.6 | 0.00 | 0.00 | 0.00 | 50 | 1015.5 |
| 20260504034107 | 25 | 225 | 0.0 | 1.6 | 0.00 | 0.00 | 0.00 | 51 | 1015.5 |
| 20260504033609 | 25 | 203 | 0.0 | 1.6 | 0.00 | 0.00 | 0.00 | 50 | 1015.4 |
| 20260504033110 | 25 | 270 | 1.6 | 3.2 | 0.00 | 0.00 | 0.00 | 50 | 1015.5 |
| 20260504032611 | 25 | 270 | 1.6 | 3.2 | 0.00 | 0.00 | 0.00 | 50 | 1015.5 |
| 20260504032112 | 25 | 225 | 0.0 | 1.6 | 0.00 | 0.00 | 0.00 | 50 | 1015.5 |
| 20260504031613 | 26 | 180 | 1.6 | 3.2 | 0.00 | 0.00 | 0.00 | 50 | 1015.6 |
| 20260504031113 | 26 | 225 | 3.2 | 8.0 | 0.00 | 0.00 | 0.00 | 48 | 1015.7 |
| 20260504030615 | 26 | 225 | 1.6 | 3.2 | 0.00 | 0.00 | 0.00 | 48 | 1015.8 |
| 20260504030116 | 26 | 180 | 0.0 | 1.6 | 0.00 | 0.00 | 0.00 | 46 | 1015.9 |
| 20260504025617 | 26 | 248 | 1.6 | 3.2 | 0.00 | 0.00 | 0.00 | 46 | 1015.9 |
| 20260504025117 | 26 | 225 | 1.6 | 3.2 | 0.00 | 0.00 | 0.00 | 45 | 1015.9 |
| 20260504024618 | 26 | 135 | 0.0 | 1.6 | 0.00 | 0.00 | 0.00 | 44 | 1016.0 |
| 20260504024119 | 27 | 270 | 0.0 | 1.6 | 0.00 | 0.00 | 0.00 | 41 | 1016.1 |
| 20260504023620 | 27 | 225 | 3.2 | 4.8 | 0.00 | 0.00 | 0.00 | 40 | 1016.1 |
| 20260504023121 | 27 | 225 | 0.0 | 3.2 | 0.00 | 0.00 | 0.00 | 39 | 1016.1 |
| 20260504022621 | 28 | 225 | 0.0 | 1.6 | 0.00 | 0.00 | 0.00 | 39 | 1016.2 |
| 20260504022122 | 28 | 225 | 0.0 | 3.2 | 0.00 | 0.00 | 0.00 | 41 | 1016.3 |
| 20260504021624 | 28 | 135 | 0.0 | 1.6 | 0.00 | 0.00 | 0.00 | 39 | 1016.4 |
| 20260504021125 | 29 | 135 | 0.0 | 1.6 | 0.00 | 0.00 | 0.00 | 37 | 1016.4 |
| 20260504020626 | 30 | 45 | 0.0 | 3.2 | 0.00 | 0.00 | 0.00 | 35 | 1016.6 |
| 20260504020127 | 30 | 315 | 1.6 | 3.2 | 0.00 | 0.00 | 0.00 | 40 | 1016.7 |
| 20260504015627 | 29 | 0 | 0.0 | 1.6 | 0.00 | 0.00 | 0.00 | 41 | 1016.8 |
| 20260504015128 | 28 | 270 | 1.6 | 3.2 | 0.00 | 0.00 | 0.00 | 40 | 1016.9 |
| 20260504014630 | 28 | 45 | 0.0 | 1.6 | 0.00 | 0.00 | 0.00 | 42 | 1016.9 |
| 20260504014131 | 28 | 0 | 0.0 | 3.2 | 0.00 | 0.00 | 0.00 | 43 | 1017.1 |
| 20260504013632 | 28 | 158 | 0.0 | 1.6 | 0.00 | 0.00 | 0.00 | 42 | 1017.3 |
| 20260504013132 | 27 | 315 | 0.0 | 1.6 | 0.00 | 0.00 | 0.00 | 44 | 1017.2 |
| 20260504012633 | 26 | 315 | 0.0 | 1.6 | 0.00 | 0.00 | 0.00 | 49 | 1017.3 |
| 20260504012135 | 26 | 315 | 1.6 | 3.2 | 0.00 | 0.00 | 0.00 | 44 | 1017.5 |
| 20260504011636 | 26 | 315 | 0.0 | 1.6 | 0.00 | 0.00 | 0.00 | 43 | 1017.4 |
| 20260504011137 | 27 | 315 | 0.0 | 1.6 | 0.00 | 0.00 | 0.00 | 48 | 1017.4 |
| 20260504010638 | 27 | 0 | 3.2 | 4.8 | 0.00 | 0.00 | 0.00 | 44 | 1017.4 |
| 20260504010139 | 27 | 45 | 0.0 | 1.6 | 0.00 | 0.00 | 0.00 | 45 | 1017.4 |
| 20260504005640 | 27 | 0 | 0.0 | 1.6 | 0.00 | 0.00 | 0.00 | 48 | 1017.5 |
| 20260504005141 | 26 | 0 | 3.2 | 8.0 | 0.00 | 0.00 | 0.00 | 50 | 1017.6 |
| 20260504004642 | 25 | 315 | 1.6 | 3.2 | 0.00 | 0.00 | 0.00 | 52 | 1017.5 |
| 20260504004143 | 25 | 315 | 3.2 | 3.2 | 0.00 | 0.00 | 0.00 | 54 | 1017.5 |
| 20260504003644 | 25 | 315 | 1.6 | 3.2 | 0.00 | 0.00 | 0.00 | 55 | 1017.6 |
| 20260504003145 | 24 | 0 | 0.0 | 3.2 | 0.00 | 0.00 | 0.00 | 54 | 1017.6 |
| 20260504002645 | 25 | 315 | 3.2 | 4.8 | 0.00 | 0.00 | 0.00 | 53 | 1017.7 |
| 20260504002146 | 25 | 0 | 3.2 | 4.8 | 0.00 | 0.00 | 0.00 | 52 | 1017.7 |
| 20260504001648 | 25 | 315 | 1.6 | 3.2 | 0.00 | 0.00 | 0.00 | 54 | 1017.7 |
| 20260504001149 | 25 | 0 | 1.6 | 3.2 | 0.00 | 0.00 | 0.00 | 53 | 1017.7 |
| 20260504000650 | 25 | 0 | 0.0 | 1.6 | 0.00 | 0.00 | 0.00 | 54 | 1017.7 |
| 20260504000150 | 25 | 315 | 1.6 | 3.2 | 0.00 | 0.00 | 0.00 | 57 | 1017.7 |
| 20260503235652 | 25 | 0 | 0.0 | 1.6 | 0.00 | 0.00 | 0.00 | 55 | 1017.8 |
| 20260503235153 | 24 | 315 | 0.0 | 1.6 | 0.00 | 0.00 | 0.00 | 59 | 1017.7 |
| 20260503234654 | 25 | 0 | 0.0 | 1.6 | 0.00 | 0.00 | 0.00 | 57 | 1017.7 |
| 20260503234155 | 24 | 0 | 0.0 | 3.2 | 0.00 | 0.00 | 0.00 | 58 | 1017.7 |
| 20260503233655 | 23 | 0 | 1.6 | 3.2 | 0.00 | 0.00 | 0.00 | 63 | 1017.8 |
| 20260503233156 | 22 | 315 | 1.6 | 3.2 | 0.00 | 0.00 | 0.00 | 67 | 1017.8 |
| 20260503232658 | 21 | 315 | 0.0 | 3.2 | 0.00 | 0.00 | 0.00 | 70 | 1017.8 |
| 20260503232159 | 21 | 315 | 3.2 | 4.8 | 0.00 | 0.00 | 0.00 | 70 | 1017.8 |
| 20260503231700 | 21 | 23 | 0.0 | 1.6 | 0.00 | 0.00 | 0.00 | 71 | 1017.9 |
| 20260503231201 | 20 | 0 | 0.0 | 1.6 | 0.00 | 0.00 | 0.00 | 74 | 1017.8 |
| 20260503230702 | 20 | 0 | 3.2 | 6.4 | 0.00 | 0.00 | 0.00 | 76 | 1017.9 |
| 20260503230157 | 20 | 315 | 3.2 | 4.8 | 0.00 | 0.00 | 0.00 | 77 | 1017.8 |
| 20260503225424 | 18 | 315 | 1.6 | 3.2 | 0.00 | 0.00 | 0.00 | 78 | 1017.7 |
| 20260503224926 | 19 | 315 | 1.6 | 3.2 | 0.00 | 0.00 | 0.00 | 78 | 1017.8 |
| 20260503224427 | 19 | 315 | 1.6 | 4.8 | 0.00 | 0.00 | 0.00 | 81 | 1017.8 |
| 20260503223928 | 19 | 315 | 0.0 | 3.2 | 0.00 | 0.00 | 0.00 | 82 | 1017.8 |
| 20260503223429 | 18 | 0 | 0.0 | 3.2 | 0.00 | 0.00 | 0.00 | 84 | 1017.7 |
| 20260503222930 | 18 | 315 | 1.6 | 3.2 | 0.00 | 0.00 | 0.00 | 86 | 1017.7 |
| 20260503222430 | 18 | 315 | 0.0 | 3.2 | 0.00 | 0.00 | 0.00 | 87 | 1017.7 |
| 20260503221932 | 18 | 315 | 0.0 | 1.6 | 0.00 | 0.00 | 0.00 | 88 | 1017.7 |
| 20260503221433 | 17 | 315 | 3.2 | 4.8 | 0.00 | 0.00 | 0.00 | 88 | 1017.7 |
| 20260503220934 | 17 | 0 | 0.0 | 3.2 | 0.00 | 0.00 | 0.00 | 89 | 1017.7 |
| 20260503220435 | 17 | 0 | 0.0 | 1.6 | 0.00 | 0.00 | 0.00 | 90 | 1017.8 |
| 20260503215936 | 17 | 0 | 0.0 | 1.6 | 0.00 | 0.00 | 0.00 | 90 | 1017.7 |
| 20260503215437 | 17 | 0 | 0.0 | 0.0 | 0.00 | 0.00 | 0.00 | 91 | 1017.8 |
| 20260503214938 | 16 | 0 | 0.0 | 1.6 | 0.00 | 0.00 | 0.00 | 92 | 1017.7 |
| 20260503214439 | 16 | 0 | 0.0 | 1.6 | 0.00 | 0.00 | 0.00 | 92 | 1017.6 |
| 20260503213940 | 16 | 23 | 0.0 | 1.6 | 0.00 | 0.00 | 0.00 | 92 | 1017.7 |
| 20260503213440 | 16 | 23 | 0.0 | 0.0 | 0.00 | 0.00 | 0.00 | 92 | 1017.5 |
| 20260503212941 | 16 | 23 | 0.0 | 0.0 | 0.00 | 0.00 | 0.00 | 92 | 1017.4 |
| 20260503212443 | 16 | 23 | 0.0 | 1.6 | 0.00 | 0.00 | 0.00 | 92 | 1017.4 |
| 20260503211944 | 16 | 23 | 0.0 | 0.0 | 0.00 | 0.00 | 0.00 | 92 | 1017.3 |
| 20260503211445 | 16 | 23 | 0.0 | 0.0 | 0.00 | 0.00 | 0.00 | 92 | 1017.2 |
| 20260503210946 | 16 | 23 | 0.0 | 1.6 | 0.00 | 0.00 | 0.00 | 92 | 1017.1 |
| 20260503210446 | 15 | 23 | 0.0 | 1.6 | 0.00 | 0.00 | 0.00 | 92 | 1017.0 |